"2009-12-12 00:00:00",1495006,5.305,167.8,6.043,1.149,7.57,101.3747,2.807,4,9.63,0,109.7,13.5,3.57,129.8
"2009-12-12 00:00:30",1495007,5.007,167.3,6.521,1.136,7.018,101.3767,2.812,4.028,9.86,0,109.7,13.5,3.57,129.3
"2009-12-12 00:01:00",1495008,5.561,172.2,5.389,1.121,8.14,101.381,2.823,4.091,9.93,0,109.7,13.5,3.58,134.2
"2009-12-12 00:01:30",1495009,4.367,164.6,4.952,1.041,4.891,101.3796,2.819,3.907,9.67,0,109.7,13.5,3.58,126.6
"2009-12-12 00:02:00",1495010,5.662,172.5,6.253,1.17,7.386,101.385,2.833,3.984,9.72,0,109.7,13.5,3.60,134.5
"2009-12-12 00:02:30",1495011,4.473,169.7,4.225,0.766,5.07,101.3876,2.84,3.916,9.56,0,109.7,13.51,3.60,131.7
"2009-12-12 00:03:00",1495012,6.156,183.2,4.612,1.07,8.64,101.3933,2.854,4.081,9.6,0,109.7,13.51,3.62,145.2
"2009-12-12 00:03:30",1495013,6.219,188.3,5.583,1.137,8.09,101.3967,2.863,4.05,9.54,0,109.7,13.51,3.63,150.3
"2009-12-12 00:04:00",1495014,6.576,192.2,5.001,0.853,8.4,101.395,2.859,4.083,9.63,0,109.7,13.51,3.62,154.2
"2009-12-12 00:04:30",1495015,5.486,188.6,6.583,1.189,6.055,101.3953,2.86,3.961,9.57,0,109.7,13.51,3.62,150.6
"2009-12-12 00:05:00",1495016,5.264,184.4,5.755,1.056,4.998,101.3897,2.845,3.968,9.66,0,109.8,13.51,3.61,146.4
"2009-12-12 00:05:30",1495017,5.772,184.8,6.588,1.232,5.641,101.3908,2.848,3.97,9.72,0,109.7,13.51,3.61,146.8
"2009-12-12 00:06:00",1495018,6.754,187.9,6.31,1.11,7.231,101.3909,2.848,4.038,9.84,0,109.7,13.51,3.61,149.9
"2009-12-12 00:06:30",1495019,6.692,188.5,5.874,1.179,7.284,101.3917,2.85,4.061,9.91,0,109.7,13.51,3.61,150.5
"2009-12-12 00:07:00",1495020,6.736,189.1,5.449,1.161,7.325,101.3917,2.85,4.033,9.93,0,109.7,13.51,3.61,151.1
"2009-12-12 00:07:30",1495021,5.828,187.2,6.368,1.178,5.639,101.3917,2.85,4.004,9.95,0,109.7,13.51,3.61,149.2
"2009-12-12 00:08:00",1495022,6.246,193.1,5.361,1.181,6.693,101.3917,2.85,3.965,9.93,0,109.7,13.51,3.61,155.1
"2009-12-12 00:08:30",1495023,4.94,189.7,6.115,1.032,5.203,101.3886,2.842,3.967,9.98,0,109.7,13.51,3.60,151.7
"2009-12-12 00:09:00",1495024,5.563,192.4,6.502,1.185,6.238,101.381,2.823,3.928,9.96,0,109.7,13.51,3.58,154.4
"2009-12-12 00:09:30",1495025,5.876,188.7,5.532,1.239,6.591,101.3654,2.783,4.01,10.11,0,109.7,13.52,3.54,150.7
"2009-12-12 00:10:00",1495026,6.543,186.6,5.776,1.076,7.495,101.3583,2.765,3.962,10.01,0,109.7,13.52,3.53,148.6
"2009-12-12 00:10:30",1495027,6.566,184.9,4.966,1.065,7.809,101.3578,2.764,4.041,9.98,0,109.7,13.52,3.53,146.9
"2009-12-12 00:11:00",1495028,5.109,175.6,5.28,0.96,5.349,101.3578,2.764,3.899,9.78,0,109.7,13.52,3.53,137.6
"2009-12-12 00:11:30",1495029,6.189,181.9,6.163,1.209,6.34,101.3578,2.764,3.908,9.76,0,109.7,13.51,3.53,143.9
"2009-12-12 00:12:00",1495030,5.684,182.9,6.972,1.178,5.625,101.3578,2.764,3.929,9.84,0,109.7,13.52,3.53,144.9
"2009-12-12 00:12:30",1495031,6.751,189.2,5.58,1.063,7.41,101.3578,2.764,3.981,10.01,0,109.7,13.52,3.53,151.2
"2009-12-12 00:13:00",1495032,6.661,192.8,5.864,1.052,7.733,101.3578,2.764,3.958,10.03,0,109.7,13.52,3.53,154.8
"2009-12-12 00:13:30",1495033,6.636,194.8,6.061,1.058,7.552,101.3578,2.764,4.003,10.22,0,109.7,13.52,3.53,156.8
"2009-12-12 00:14:00",1495034,5.512,191.2,5.295,1.093,5.387,101.3578,2.764,3.876,10.17,0,109.7,13.52,3.53,153.2
"2009-12-12 00:14:30",1495035,5.956,197.4,6.489,1.267,6.299,101.3578,2.764,3.968,10.24,0,109.7,13.52,3.53,159.4
"2009-12-12 00:15:00",1495036,6.026,198.9,6.552,1.258,6.488,101.3575,2.763,3.936,10.31,0,109.7,13.52,3.52,160.9
"2009-12-12 00:15:30",1495037,5.594,194.3,6.26,1.189,5.312,101.3521,2.749,3.836,10.45,0,109.7,13.52,3.51,156.3
"2009-12-12 00:16:00",1495038,6.254,195,6.085,1.153,6.936,101.3408,2.72,3.949,10.63,0,109.7,13.52,3.48,157.0
"2009-12-12 00:16:30",1495039,6.64,199.9,4.652,0.93,8.18,101.3244,2.679,3.98,10.72,0,109.7,13.52,3.44,161.9
"2009-12-12 00:17:00",1495040,5.962,201.5,6.595,1.122,7.076,101.3238,2.677,3.898,10.69,0,109.7,13.52,3.44,163.5
"2009-12-12 00:17:30",1495041,4.886,202.2,5.402,1.214,5.159,101.3238,2.677,3.937,10.83,0,109.7,13.52,3.44,164.2
"2009-12-12 00:18:00",1495042,5.443,211.1,6.254,1.146,6.599,101.3238,2.677,3.898,10.86,0,109.7,13.52,3.44,173.1
"2009-12-12 00:18:30",1495043,4.917,205.2,7.437,1.141,5.239,101.3235,2.676,3.771,10.71,0,109.7,13.52,3.44,167.2
"2009-12-12 00:19:00",1495044,5.304,200.6,6.072,1.204,6.401,101.3176,2.661,3.951,10.66,0,109.7,13.53,3.42,162.6
"2009-12-12 00:19:30",1495045,5.784,199.5,6.416,1.184,7.385,101.2995,2.615,3.944,10.34,0,109.7,13.53,3.38,161.5
"2009-12-12 00:20:00",1495046,6.179,197.4,5.922,1.101,7.838,101.2919,2.596,3.931,10.22,0,109.7,13.53,3.36,159.4
"2009-12-12 00:20:30",1495047,5.384,194.6,6.371,1.212,6.755,101.2907,2.593,3.901,10.15,0,109.7,13.53,3.35,156.6
"2009-12-12 00:21:00",1495048,5.928,200,5.285,1.15,6.995,101.2922,2.596,3.84,10.09,0,109.7,13.53,3.36,162.0
"2009-12-12 00:21:30",1495049,5.514,199.9,6.388,1.214,5.743,101.2922,2.596,3.726,10.25,0,109.7,13.53,3.36,161.9
"2009-12-12 00:22:00",1495050,5.342,199,5.903,1.196,6.264,101.2956,2.605,3.928,11.07,0,109.7,13.53,3.37,161.0
"2009-12-12 00:22:30",1495051,6.185,205.1,5.792,1.098,7.548,101.2959,2.606,3.873,11.39,0,109.7,13.53,3.37,167.1
"2009-12-12 00:23:00",1495052,6.204,206.5,5.532,1.118,7.483,101.2948,2.603,3.877,11.75,0,109.7,13.53,3.36,168.5
"2009-12-12 00:23:30",1495053,5.767,196.9,6.071,1.209,5.992,101.286,2.581,3.847,11.7,0,109.7,13.53,3.34,158.9
"2009-12-12 00:24:00",1495054,6.868,191.6,6.158,1.136,6.734,101.2719,2.545,3.841,11.85,0,109.7,13.53,3.31,153.6
"2009-12-12 00:24:30",1495055,6.053,186.7,4.5,0.968,3.957,101.2662,2.53,3.66,15.81,0,109.7,13.53,3.29,148.7
"2009-12-12 00:25:00",1495056,7.268,193.4,4.565,1.313,6.818,101.2685,2.536,3.851,19.21,0,109.7,13.53,3.30,155.4
"2009-12-12 00:25:30",1495057,6.655,202.1,5.666,1.169,7.371,101.2688,2.537,3.841,14.72,0,109.7,13.53,3.30,164.1
"2009-12-12 00:26:00",1495058,6.723,208.6,4.718,0.85,7.809,101.27,2.54,3.815,13.34,0,109.7,13.53,3.30,170.6
"2009-12-12 00:26:30",1495059,6.023,206.5,5.992,1.217,6.405,101.2635,2.523,3.774,13.08,0,109.7,13.53,3.28,168.5
"2009-12-12 00:27:00",1495060,5.799,204.2,6.193,1.227,6.3,101.2505,2.49,3.81,13.02,0,109.7,13.53,3.25,166.2
"2009-12-12 00:27:30",1495061,5.708,198.8,5.696,1.148,4.811,101.2397,2.463,3.591,12.74,0,109.7,13.53,3.22,160.8
"2009-12-12 00:28:00",1495062,5.747,200.7,6.293,1.174,6.247,101.2418,2.468,3.809,12.8,0,109.6,13.53,3.23,162.7
"2009-12-12 00:28:30",1495063,6.432,204.4,5.915,1.177,7.113,101.2397,2.463,3.711,12.53,0,109.7,13.53,3.22,166.4
"2009-12-12 00:29:00",1495064,6.538,204.5,5.214,1.148,7.899,101.2412,2.466,3.722,12.41,0,109.7,13.53,3.23,166.5
"2009-12-12 00:29:30",1495065,6.437,205.3,5.374,1.109,7.911,101.242,2.468,3.809,12.21,0,109.7,13.53,3.23,167.3
"2009-12-12 00:30:00",1495066,6.122,204.5,6.104,1.201,6.484,101.2358,2.452,3.614,12.11,0,109.7,13.53,3.21,166.5
"2009-12-12 00:30:30",1495067,5.006,201.4,5.12,0.905,5.239,101.2268,2.429,3.65,11.94,0,109.7,13.53,3.19,163.4
"2009-12-12 00:31:00",1495068,5.784,206.2,6.418,1.214,6.369,101.2138,2.396,3.565,11.47,0,109.7,13.53,3.16,168.2
"2009-12-12 00:31:30",1495069,5.75,206.1,6.859,1.219,7.157,101.2135,2.396,3.718,11.45,0,109.7,13.53,3.16,168.1
"2009-12-12 00:32:00",1495070,6.432,204.5,5.814,1.161,7.681,101.2118,2.391,3.704,11.75,0,109.7,13.53,3.15,166.5
"2009-12-12 00:32:30",1495071,6.867,205.2,4.028,0.672,8.36,101.2127,2.393,3.755,12.28,0,109.7,13.53,3.15,167.2
"2009-12-12 00:33:00",1495072,6.068,200,6.253,1.189,6.427,101.2147,2.399,3.576,12.4,0,109.7,13.53,3.16,162.0
"2009-12-12 00:33:30",1495073,5.425,195.9,5.715,1.138,4.852,101.2141,2.397,3.539,12.42,0,109.7,13.53,3.16,157.9
"2009-12-12 00:34:00",1495074,5.681,197.3,6.655,1.213,5.718,101.215,2.399,3.577,12.57,0,109.7,13.53,3.16,159.3
"2009-12-12 00:34:30",1495075,5.976,200.3,6.453,1.212,6.977,101.2155,2.401,3.639,12.48,0,109.7,13.53,3.16,162.3
"2009-12-12 00:35:00",1495076,6.403,203.4,5.635,1.094,7.778,101.2147,2.399,3.657,12.54,0,109.7,13.54,3.16,165.4
"2009-12-12 00:35:30",1495077,6.67,207.7,2.848,0.848,8.31,101.2144,2.398,3.72,12.61,0,109.7,13.54,3.16,169.7
"2009-12-12 00:36:00",1495078,5.67,203.4,6.358,1.176,6.214,101.2173,2.405,3.559,12.58,0,109.7,13.54,3.17,165.4
"2009-12-12 00:36:30",1495079,6.185,207.1,6.037,1.209,6.928,101.2167,2.404,3.617,12.76,0,109.7,13.54,3.16,169.1
"2009-12-12 00:37:00",1495080,4.987,201.7,4.17,0.853,4.324,101.2187,2.409,3.549,12.76,0,109.6,13.54,3.17,163.7
"2009-12-12 00:37:30",1495081,6.576,206.9,5.849,1.091,7.34,101.2196,2.411,3.554,12.92,0,109.7,13.54,3.17,168.9
"2009-12-12 00:38:00",1495082,7.027,204.1,5.276,0.869,8.13,101.2198,2.412,3.642,12.87,0,109.7,13.54,3.17,166.1
"2009-12-12 00:38:30",1495083,6.684,201.1,6.408,1.136,7.679,101.2142,2.397,3.673,12.88,0,109.7,13.54,3.16,163.1
"2009-12-12 00:39:00",1495084,6.672,202.1,5.325,1.096,7.065,101.2068,2.379,3.631,12.78,0,109.6,13.54,3.14,164.1
"2009-12-12 00:39:30",1495085,6.336,200.7,5.952,1.214,6.147,101.1981,2.356,3.479,12.64,0,109.7,13.54,3.12,162.7
"2009-12-12 00:40:00",1495086,5.668,199.8,6.474,1.164,5.543,101.1924,2.342,3.547,12.59,0,109.7,13.54,3.10,161.8
"2009-12-12 00:40:30",1495087,5.792,201.9,6.541,1.198,6.308,101.1918,2.34,3.553,12.82,0,109.7,13.54,3.10,163.9
"2009-12-12 00:41:00",1495088,6.295,206.3,4.928,1.063,7.859,101.1898,2.335,3.611,13.38,0,109.7,13.54,3.10,168.3
"2009-12-12 00:41:30",1495089,6.154,203.7,5.608,1.14,7.452,101.1904,2.337,3.639,13.28,0,109.7,13.54,3.10,165.7
"2009-12-12 00:42:00",1495090,6.375,205.1,4.448,0.927,7.921,101.1899,2.335,3.626,13.1,0,109.7,13.54,3.10,167.1
"2009-12-12 00:42:30",1495091,4.987,197.9,5.445,1.055,5.082,101.1885,2.332,3.477,12.44,0,109.7,13.54,3.09,159.9
"2009-12-12 00:43:00",1495092,5.447,199.2,6.197,1.232,5.973,101.1885,2.332,3.561,12.11,0,109.7,13.54,3.09,161.2
"2009-12-12 00:43:30",1495093,5.408,198.8,6.791,1.223,6.073,101.1885,2.332,3.441,11.73,0,109.7,13.54,3.09,160.8
"2009-12-12 00:44:00",1495094,5.966,200.6,6.229,1.26,7.099,101.1885,2.332,3.639,11.73,0,109.7,13.54,3.09,162.6
"2009-12-12 00:44:30",1495095,6.595,201.4,5.258,1.009,8.01,101.1885,2.332,3.558,11.6,0,109.7,13.54,3.09,163.4
"2009-12-12 00:45:00",1495096,6.672,200.7,4.982,0.964,8.13,101.1885,2.332,3.651,11.9,0,109.7,13.54,3.09,162.7
"2009-12-12 00:45:30",1495097,5.965,195.5,6.32,1.263,6.417,101.1885,2.332,3.453,12.51,0,109.7,13.54,3.09,157.5
"2009-12-12 00:46:00",1495098,5.363,194.4,5.309,1.109,5.55,101.1885,2.332,3.558,13.23,0,109.7,13.54,3.09,156.4
"2009-12-12 00:46:30",1495099,5.492,198.5,6.826,1.158,5.944,101.1885,2.332,3.532,13.25,0,109.7,13.54,3.09,160.5
"2009-12-12 00:47:00",1495100,6.166,202.9,6.277,1.18,7.436,101.1885,2.332,3.591,13.27,0,109.7,13.54,3.09,164.9
"2009-12-12 00:47:30",1495101,5.9,201.9,6.229,1.219,6.949,101.1885,2.332,3.57,13.52,0,109.7,13.54,3.09,163.9
"2009-12-12 00:48:00",1495102,6.102,204.6,5.744,1.107,7.825,101.1885,2.332,3.628,13.92,0,109.7,13.54,3.09,166.6
"2009-12-12 00:48:30",1495103,5.587,202.5,6.271,1.208,7.184,101.1885,2.332,3.616,13.99,0,109.7,13.54,3.09,164.5
"2009-12-12 00:49:00",1495104,5.653,203,5.836,1.178,6.661,101.1885,2.332,3.525,14.08,0,109.7,13.54,3.09,165.0
"2009-12-12 00:49:30",1495105,4.884,196.9,5.005,1.003,4.917,101.1885,2.332,3.472,14.38,0,109.7,13.54,3.09,158.9
"2009-12-12 00:50:00",1495106,5.557,200.2,6.316,1.201,6.255,101.1885,2.332,3.5,15.45,0,109.7,13.54,3.09,162.2
"2009-12-12 00:50:30",1495107,6.316,202.4,5.967,1.052,7.545,101.1885,2.332,3.633,16.57,0,109.7,13.54,3.09,164.4
"2009-12-12 00:51:00",1495108,6.531,204,5.325,1.014,8.05,101.1893,2.334,3.617,17.02,0,109.7,13.54,3.09,166.0
"2009-12-12 00:51:30",1495109,5.915,200.9,6.315,1.22,6.919,101.1901,2.336,3.628,17.46,0,109.7,13.55,3.10,162.9
"2009-12-12 00:52:00",1495110,6.202,202.3,6.404,1.167,6.976,101.1901,2.336,3.611,17.8,0,109.7,13.55,3.10,164.3
"2009-12-12 00:52:30",1495111,5.735,200.6,6.25,1.194,6.204,101.1916,2.34,3.561,18.15,0,109.6,13.55,3.10,162.6
"2009-12-12 00:53:00",1495112,5.358,198.8,5.881,1.164,5.906,101.1961,2.351,3.527,18.97,0,109.6,13.55,3.11,160.8
"2009-12-12 00:53:30",1495113,5.588,201.2,6.488,1.226,6.533,101.2001,2.361,3.611,20.04,0,109.6,13.55,3.12,163.2
"2009-12-12 00:54:00",1495114,5.822,201.9,6.224,1.184,7.027,101.2032,2.369,3.631,20.35,0,109.6,13.55,3.13,163.9
"2009-12-12 00:54:30",1495115,5.924,203.1,5.915,1.19,7.667,101.2035,2.37,3.669,20.76,0,109.6,13.55,3.13,165.1
"2009-12-12 00:55:00",1495116,5.04,197.6,5.968,1.105,5.801,101.2037,2.371,3.58,20.9,0,109.6,13.55,3.13,159.6
"2009-12-12 00:55:30",1495117,6.041,199.8,6.429,1.176,6.696,101.1992,2.359,3.608,21.02,0,109.6,13.55,3.12,161.8
"2009-12-12 00:56:00",1495118,5.648,198,6.226,1.103,5.917,101.1969,2.353,3.476,21.16,0,109.7,13.55,3.11,160.0
"2009-12-12 00:56:30",1495119,6.188,201.6,5.862,1.229,6.629,101.1975,2.355,3.685,21.87,0,109.6,13.55,3.12,163.6
"2009-12-12 00:57:00",1495120,6.514,202.7,5.929,1.142,7.138,101.1947,2.348,3.586,22.22,0,109.6,13.55,3.11,164.7
"2009-12-12 00:57:30",1495121,5.963,202,6.129,1.25,6.734,101.1938,2.345,3.677,22.79,0,109.6,13.55,3.11,164.0
"2009-12-12 00:58:00",1495122,6.579,206.2,4.47,1.007,7.837,101.1933,2.344,3.652,23.01,0,109.6,13.55,3.10,168.2
"2009-12-12 00:58:30",1495123,6.004,202.8,6.019,1.224,6.45,101.1941,2.346,3.571,23.12,0,109.6,13.55,3.11,164.8
"2009-12-12 00:59:00",1495124,5.388,203.1,6.331,1.155,5.653,101.1899,2.335,3.541,23.07,0,109.6,13.56,3.10,165.1
"2009-12-12 00:59:30",1495125,5.315,203.5,6.275,1.238,5.539,101.1885,2.332,3.491,22.96,0,109.7,13.55,3.09,165.5
"2009-12-12 01:00:00",1495126,6.204,206.7,5.378,1.042,7.606,101.1885,2.332,3.613,23.11,0,109.6,13.56,3.09,168.7
"2009-12-12 01:00:30",1495127,5.849,201.7,6.296,1.231,6.932,101.1885,2.332,3.639,23.26,0,109.6,13.56,3.09,163.7
"2009-12-12 01:01:00",1495128,6.681,203.9,4.596,0.681,8.19,101.1885,2.332,3.65,23.36,0,109.7,13.56,3.09,165.9
"2009-12-12 01:01:30",1495129,5.947,202.3,5.957,1.124,6.746,101.1885,2.332,3.582,23.32,0,109.6,13.56,3.09,164.3
"2009-12-12 01:02:00",1495130,4.659,197.6,5.172,0.91,4.477,101.1885,2.332,3.487,23.22,0,109.6,13.55,3.09,159.6
"2009-12-12 01:02:30",1495131,5.372,204.7,6.643,1.198,5.869,101.1885,2.332,3.552,23.31,0,109.7,13.55,3.09,166.7
"2009-12-12 01:03:00",1495132,6.381,207.7,5.345,1.046,7.39,101.1885,2.332,3.582,23.45,0,109.6,13.55,3.09,169.7
"2009-12-12 01:03:30",1495133,5.896,203.5,5.957,1.21,6.585,101.1885,2.332,3.531,23.64,0,109.6,13.55,3.09,165.5
"2009-12-12 01:04:00",1495134,6.792,207,3.245,0.757,8.46,101.1885,2.332,3.707,23.94,0,109.6,13.55,3.09,169.0
"2009-12-12 01:04:30",1495135,6.082,202.7,5.645,1.171,7.324,101.1885,2.332,3.587,24.31,0,109.6,13.55,3.09,164.7
"2009-12-12 01:05:00",1495136,5.23,193.9,6.027,1.184,5.094,101.1851,2.323,3.486,24.48,0,109.6,13.55,3.08,155.9
"2009-12-12 01:05:30",1495137,5.197,193.4,6.061,1.182,5.496,101.1794,2.309,3.501,24.38,0,109.6,13.55,3.07,155.4
"2009-12-12 01:06:00",1495138,4.546,189.3,4.546,1.001,4.687,101.1737,2.294,3.534,24.17,0,109.6,13.55,3.05,151.3
"2009-12-12 01:06:30",1495139,5.744,195.7,6.193,1.066,7.519,101.1695,2.283,3.576,24.17,0,109.6,13.55,3.04,157.7
"2009-12-12 01:07:00",1495140,5.955,198.4,2.99,0.769,8.49,101.1689,2.282,3.64,24.13,0,109.6,13.56,3.04,160.4
"2009-12-12 01:07:30",1495141,5.224,194.2,6.02,1.19,6.847,101.1618,2.264,3.499,23.87,0,109.6,13.56,3.02,156.2
"2009-12-12 01:08:00",1495142,4.141,187.5,6.135,1.058,4.441,101.1551,2.246,3.396,23.37,0,109.6,13.56,3.01,149.5
"2009-12-12 01:08:30",1495143,4.662,187.5,6.092,1.223,5.013,101.1545,2.245,3.457,22.9,0,109.6,13.56,3.00,149.5
"2009-12-12 01:09:00",1495144,3.76,182.2,0.324,0.046,3.409,101.1548,2.246,3.406,23.24,0,109.6,13.59,3.01,144.2
"2009-12-12 01:09:30",1495145,5.273,192.2,5.75,1.166,6.981,101.1545,2.245,3.51,23.58,0,109.6,13.56,3.00,154.2
"2009-12-12 01:10:00",1495146,5.453,195.3,4.402,0.946,7.764,101.1528,2.241,3.584,23.83,0,109.6,13.56,3.00,157.3
"2009-12-12 01:10:30",1495147,4.441,189.1,6.346,1.232,6.031,101.1418,2.213,3.48,23.96,0,109.6,13.56,2.97,151.1
"2009-12-12 01:11:00",1495148,4.773,190.1,5.937,1.2,6.089,101.131,2.185,3.443,24.09,0,109.6,13.56,2.94,152.1
"2009-12-12 01:11:30",1495149,3.831,186.9,5.859,1.063,4.5,101.1208,2.159,3.402,24.23,0,109.6,13.56,2.92,148.9
"2009-12-12 01:12:00",1495150,3.577,183.8,3.403,0.85,3.455,101.1211,2.16,3.259,24.18,0,109.6,13.56,2.92,145.8
"2009-12-12 01:12:30",1495151,4.035,186.8,6.095,1.17,5.125,101.1217,2.161,3.449,24.4,0,109.6,13.56,2.92,148.8
"2009-12-12 01:13:00",1495152,5.521,193.1,4.012,0.541,8.34,101.1208,2.159,3.538,24.43,0,109.6,13.57,2.92,155.1
"2009-12-12 01:13:30",1495153,4.983,189.7,5.671,1.136,7.396,101.12,2.157,3.468,24.36,0,109.6,13.57,2.92,151.7
"2009-12-12 01:14:00",1495154,4.763,187.3,6.22,1.156,5.904,101.1047,2.118,3.371,24.3,0,109.6,13.57,2.88,149.3
"2009-12-12 01:14:30",1495155,4.082,184.6,5.981,1.102,4.382,101.0982,2.101,3.331,24.43,0,109.6,13.56,2.86,146.6
"2009-12-12 01:15:00",1495156,3.435,180.5,2.61,0.656,2.843,101.0912,2.083,3.171,24.38,0,109.6,13.57,2.84,142.5
"2009-12-12 01:15:30",1495157,3.868,181.9,5.143,1.136,4.082,101.0932,2.089,3.168,24.43,0,109.6,13.57,2.85,143.9
"2009-12-12 01:16:00",1495158,4.821,184.9,5.9,1.156,7.013,101.0923,2.086,3.387,24.73,0,109.6,13.57,2.85,146.9
"2009-12-12 01:16:30",1495159,4.988,185.1,5.863,1.032,7.747,101.0969,2.098,3.373,24.82,0,109.6,13.57,2.86,147.1
"2009-12-12 01:17:00",1495160,4.54,185.1,5.853,1.109,7.511,101.0938,2.09,3.412,25.06,0,109.6,13.57,2.85,147.1
"2009-12-12 01:17:30",1495161,3.651,179,6.113,1.224,5.068,101.0833,2.063,3.269,25.06,0,109.6,13.57,2.82,141.0
"2009-12-12 01:18:00",1495162,2.498,171.9,0.868,0.087,2.863,101.0751,2.042,3.106,24.88,0,109.6,13.6,2.80,133.9
"2009-12-12 01:18:30",1495163,2.694,168.3,3.836,0.762,3.463,101.0799,2.055,3.226,25.07,0,109.6,13.57,2.81,130.3
"2009-12-12 01:19:00",1495164,3.944,165.7,6.709,1.21,5.407,101.0729,2.037,3.237,24.76,0,109.6,13.56,2.80,127.7
"2009-12-12 01:19:30",1495165,4.503,169.3,5.215,1.055,7.057,101.0732,2.038,3.39,24.69,0,109.6,13.57,2.80,131.3
"2009-12-12 01:20:00",1495166,4.901,173.6,4.419,0.531,7.724,101.0729,2.037,3.361,24.67,0,109.6,13.57,2.80,135.6
"2009-12-12 01:20:30",1495167,3.574,174.8,6.245,1.255,5.82,101.0741,2.04,3.232,24.53,0,109.6,13.56,2.80,136.8
"2009-12-12 01:21:00",1495168,2.581,172.5,4.709,0.619,3.804,101.0732,2.038,3.181,24.26,0,109.6,13.56,2.80,134.5
"2009-12-12 01:21:30",1495169,2.598,166.6,0.626,0.067,2.578,101.0653,2.017,3.035,24.14,0,109.6,13.6,2.78,128.6
"2009-12-12 01:22:00",1495170,4.024,171.3,6.784,1.203,5.313,101.0489,1.976,3.165,24.43,0,109.6,13.56,2.73,133.3
"2009-12-12 01:22:30",1495171,4.636,171.9,5.971,1.129,6.778,101.0427,1.96,3.258,24.61,0,109.6,13.57,2.72,133.9
"2009-12-12 01:23:00",1495172,4.699,170.3,3.501,0.804,7.902,101.0435,1.962,3.288,24.69,0,109.6,13.57,2.72,132.3
"2009-12-12 01:23:30",1495173,4.034,174.9,8.31,1.076,6.752,101.041,1.955,3.176,24.56,0,109.6,13.57,2.71,136.9
"2009-12-12 01:24:00",1495174,2.771,178.3,4.897,0.924,4.089,101.0277,1.922,3.078,24.78,0,109.6,13.57,2.68,140.3
"2009-12-12 01:24:30",1495175,2.46,184.8,3.12,0.057,2.667,101.015,1.889,2.954,25.52,0,109.6,13.61,2.65,146.8
"2009-12-12 01:25:00",1495176,2.859,192.8,6.062,0.954,3.789,101.0122,1.882,2.947,26.38,0,109.6,13.58,2.64,154.8
"2009-12-12 01:25:30",1495177,3.855,202.1,6.301,1.219,6.23,101.0127,1.883,3.147,27.35,0,109.6,13.58,2.64,164.1
"2009-12-12 01:26:00",1495178,4.627,204.3,5.781,0.8,7.385,101.015,1.889,3.118,27.68,0,109.6,13.58,2.65,166.3
"2009-12-12 01:26:30",1495179,4.532,200.9,5.646,1.057,7.171,101.0088,1.873,3.138,27.94,0,109.6,13.58,2.63,162.9
"2009-12-12 01:27:00",1495180,4.002,198,6.418,1.234,6.105,100.9972,1.844,3.07,28.01,0,109.6,13.58,2.60,160.0
"2009-12-12 01:27:30",1495181,2.771,191.1,0.575,0.046,3.301,100.9895,1.824,2.87,27.93,0,109.6,13.61,2.58,153.1
"2009-12-12 01:28:00",1495182,3.134,188.9,3.735,0.854,3.671,100.9833,1.808,2.862,27.98,0,109.6,13.58,2.57,150.9
"2009-12-12 01:28:30",1495183,4.195,188.4,7.18,1.199,6.318,100.9819,1.805,3.049,28.27,0,109.6,13.58,2.56,150.4
"2009-12-12 01:29:00",1495184,4.44,182.4,5.803,1.053,7.003,100.9833,1.808,3.076,27.87,0,109.6,13.58,2.57,144.4
"2009-12-12 01:29:30",1495185,4.112,182.9,6.492,1.19,6.321,100.9819,1.805,3.058,26.63,0,109.6,13.58,2.56,144.9
"2009-12-12 01:30:00",1495186,4.048,185.2,5.654,1.212,5.244,100.9828,1.807,3.009,26.32,0,109.6,13.58,2.57,147.2
"2009-12-12 01:30:30",1495187,3.848,189.5,7.656,1.183,5.197,100.9805,1.801,2.987,26.86,0,109.6,13.58,2.56,151.5
"2009-12-12 01:31:00",1495188,2.934,188.2,4.715,0.807,3.647,100.9729,1.782,2.817,27.32,0,109.6,13.58,2.54,150.2
"2009-12-12 01:31:30",1495189,3.528,192.9,6.051,1.208,5.337,100.9604,1.75,2.893,27.66,0,109.6,13.58,2.51,154.9
"2009-12-12 01:32:00",1495190,3.902,190.2,6.423,1.194,6.233,100.9511,1.726,3.028,27.81,0,109.6,13.59,2.48,152.2
"2009-12-12 01:32:30",1495191,3.277,185.8,5.804,1.214,5.401,100.9511,1.726,2.968,27.43,0,109.6,13.59,2.48,147.8
"2009-12-12 01:33:00",1495192,3.871,190.4,6.294,1.154,6.151,100.9508,1.725,3.007,27.18,0,109.6,13.59,2.48,152.4
"2009-12-12 01:33:30",1495193,3.326,187,4.945,1.11,4.357,100.9511,1.726,2.775,26.82,0,109.6,13.59,2.48,149.0
"2009-12-12 01:34:00",1495194,4.018,190.3,6.186,1.24,5.571,100.9508,1.725,2.914,27.15,0,109.6,13.59,2.48,152.3
"2009-12-12 01:34:30",1495195,3.172,188.3,5.868,1.011,4.675,100.9508,1.725,2.848,27.45,0,109.6,13.58,2.48,150.3
"2009-12-12 01:35:00",1495196,4.499,194.3,5.808,1.114,6.597,100.9449,1.71,2.909,27.52,0,109.6,13.58,2.47,156.3
"2009-12-12 01:35:30",1495197,3.987,195.1,6.086,1.231,6.086,100.9324,1.678,2.969,27.61,0,109.6,13.58,2.44,157.1
"2009-12-12 01:36:00",1495198,3.534,194.2,6.473,1.226,5.114,100.9287,1.669,2.805,27.31,0,109.6,13.58,2.43,156.2
"2009-12-12 01:36:30",1495199,2.826,188.5,3.314,0.737,3.385,100.9194,1.645,2.826,27.34,0,109.6,13.58,2.40,150.5
"2009-12-12 01:37:00",1495200,3.907,192.8,6.807,1.249,5.816,100.9171,1.639,2.811,27.43,0,109.6,13.58,2.40,154.8
"2009-12-12 01:37:30",1495201,3.793,189.7,6.291,1.226,5.894,100.9171,1.639,2.902,27.69,0,109.6,13.58,2.40,151.7
"2009-12-12 01:38:00",1495202,4.312,191.6,6.505,1.142,6.66,100.9171,1.639,2.888,27.81,0,109.6,13.58,2.40,153.6
"2009-12-12 01:38:30",1495203,4.463,192.1,5.87,1.07,6.803,100.9134,1.63,2.903,27.97,0,109.6,13.58,2.39,154.1
"2009-12-12 01:39:00",1495204,3.067,187.4,4.975,1.116,4.207,100.9015,1.6,2.774,28.04,0,109.6,13.58,2.36,149.4
"2009-12-12 01:39:30",1495205,2.426,188.5,3.035,0.446,3.412,100.8894,1.569,2.739,28.12,0,109.6,13.61,2.33,150.5
"2009-12-12 01:40:00",1495206,3.7,196.8,7.119,1.261,5.285,100.8832,1.553,2.804,28.33,0,109.6,13.59,2.31,158.8
"2009-12-12 01:40:30",1495207,3.876,199.5,6.562,1.262,5.86,100.8832,1.553,2.832,28.62,0,109.6,13.59,2.31,161.5
"2009-12-12 01:41:00",1495208,3.817,200.3,6.286,1.258,6.15,100.8832,1.553,2.827,28.81,0,109.6,13.59,2.31,162.3
"2009-12-12 01:41:30",1495209,3.82,202.9,6.181,1.238,6.106,100.8832,1.553,2.806,29.09,0,109.6,13.59,2.31,164.9
"2009-12-12 01:42:00",1495210,3.855,206.3,5.164,1.117,6.23,100.8806,1.546,2.793,29.21,0,109.6,13.59,2.30,168.3
"2009-12-12 01:42:30",1495211,2.422,202.4,4.245,1.023,3.393,100.871,1.522,2.587,28.82,0,109.6,13.59,2.28,164.4
"2009-12-12 01:43:00",1495212,2.037,206.4,2.595,0.071,2.827,100.8636,1.503,2.572,28.75,0,109.6,13.62,2.26,168.4
"2009-12-12 01:43:30",1495213,3.633,216.4,6.867,1.263,6.644,100.8526,1.475,2.811,28.29,0,109.6,13.59,2.23,178.4
"2009-12-12 01:44:00",1495214,3.976,218.9,6.435,1.226,7.116,100.8492,1.466,2.767,25.19,0,109.6,13.59,2.22,180.9
"2009-12-12 01:44:30",1495215,4.034,216.8,7.059,1.19,7.148,100.8492,1.466,2.728,23.36,0,109.6,13.59,2.22,178.8
"2009-12-12 01:45:00",1495216,3.888,215.2,6.387,1.179,7.061,100.8492,1.466,2.796,23.07,0,109.6,13.59,2.22,177.2
"2009-12-12 01:45:30",1495217,2.631,208.5,4.257,0.962,4.19,100.8492,1.466,2.633,22.7,0,109.6,13.59,2.22,170.5
"2009-12-12 01:46:00",1495218,2.128,206.8,0.688,0.065,2.937,100.8492,1.466,2.498,22.52,0,109.6,13.62,2.22,168.8
"2009-12-12 01:46:30",1495219,2.176,205.4,3.082,0.762,3.399,100.8492,1.466,2.506,25.72,0,109.6,13.6,2.22,167.4
"2009-12-12 01:47:00",1495220,3.434,207.9,5.813,1.25,6.306,100.8492,1.466,2.753,28.39,0,109.6,13.6,2.22,169.9
"2009-12-12 01:47:30",1495221,4.09,203.3,5.97,1.071,6.914,100.8492,1.466,2.728,29.13,0,109.6,13.6,2.22,165.3